Taunton, MA

1:46 AM EDT on August 26, 2019 (GMT -0400)
Taunton Municipal

Weather History for KTAN - June, 2019

Change the Weather History Date:

Friday, June 14, 2019

  Actual Average Record
Temperature  
Mean Temperature 63 °F -  
Max Temperature 73 °F 76 °F 96 °F (1956)
Min Temperature 53 °F 52 °F 39 °F (1978)
Degree Days  
Heating Degree Days 2    
Growing Degree Days 13 (Base 50)    
Moisture  
Dew Point 53 °F    
Average Humidity 73    
Maximum Humidity 93    
Minimum Humidity 45    
Precipitation  
Precipitation 0.00 in - - ()
Sea Level Pressure  
Sea Level Pressure 29.81 in    
Wind  
Wind Speed 5 mph (SW)    
Max Wind Speed 16 mph    
Max Gust Speed 25 mph    
Visibility 10 miles    
Events      
Averages and records for this station are not official NWS values.
T = Trace of Precipitation, MM = Missing Value Source: NWS Daily Summary

Daily Weather History Graph

Daily Weather History Graph

Search for Another Location

Airport or City:

Astronomy

Jun. 14, 2019 Rise Set
Actual Time 5:08 AM EDT 8:20 PM EDT
Civil Twilight 4:34 AM EDT 8:54 PM EDT
Nautical Twilight 3:50 AM EDT 9:38 PM EDT
Astronomical Twilight 2:57 AM EDT 10:31 PM EDT
Moon 5:36 PM EDT (6/14) 3:27 AM EDT (6/14)
Length of Visible Light 16h 20m
Length of Day
15h 12m
Waxing Gibbous, 92% of the Moon is Illuminated
Jun 14
Waxing Gibbous
Jun 17
Full
Jun 25
Last Quarter
Jul 2
New
Jul 9
First Quarter

Hourly Weather History & Observations

Time (EDT) Temp. Dew Point Humidity Pressure Visibility Wind Dir Wind Speed Gust Speed Precip Events Conditions
12:52 AM 54.0 °F 51.1 °F 90% 29.79 in 10.0 mi Calm Calm - N/A   Overcast
1:41 AM 54.0 °F 51.1 °F 90% 29.80 in 10.0 mi Calm Calm - N/A   Overcast
1:52 AM 54.0 °F 51.1 °F 90% 29.79 in 10.0 mi SE 3.5 mph - N/A   Mostly Cloudy
2:42 AM 54.0 °F 51.1 °F 90% 29.78 in 10.0 mi SE 3.5 mph - N/A   Overcast
2:52 AM 53.1 °F 51.1 °F 93% 29.78 in 10.0 mi SSE 3.5 mph - N/A   Mostly Cloudy
3:20 AM 54.0 °F 51.1 °F 90% 29.80 in 10.0 mi South 5.8 mph - N/A   Mostly Cloudy
3:52 AM 55.0 °F 52.0 °F 89% 29.78 in 10.0 mi Calm Calm - N/A   Overcast
4:04 AM 55.0 °F 52.0 °F 89% 29.78 in 10.0 mi SSE 3.5 mph - N/A   Overcast
4:14 AM 55.9 °F 53.1 °F 90% 29.78 in 10.0 mi South 3.5 mph - N/A   Overcast
4:37 AM 55.9 °F 53.1 °F 90% 29.79 in 10.0 mi SSW 3.5 mph - N/A   Overcast
4:52 AM 57.0 °F 54.0 °F 89% 29.79 in 10.0 mi SSW 3.5 mph - N/A   Overcast
5:15 AM 57.0 °F 54.0 °F 89% 29.78 in 10.0 mi South 3.5 mph - N/A   Overcast
5:38 AM 57.9 °F 55.0 °F 90% 29.79 in 10.0 mi SW 6.9 mph - N/A   Overcast
5:52 AM 57.9 °F 55.0 °F 90% 29.80 in 10.0 mi SSW 3.5 mph - N/A   Overcast
6:26 AM 59.0 °F 55.9 °F 90% 29.80 in 10.0 mi Calm Calm - N/A   Overcast
6:52 AM 59.0 °F 55.9 °F 90% 29.81 in 10.0 mi SSW 4.6 mph - N/A   Overcast
7:52 AM 62.1 °F 57.0 °F 84% 29.81 in 10.0 mi Variable 6.9 mph - N/A   Overcast
8:13 AM 63.0 °F 57.0 °F 81% 29.82 in 10.0 mi West 9.2 mph 17.3 mph N/A   Mostly Cloudy
8:48 AM 64.4 °F 55.4 °F 73% 29.82 in 10.0 mi WSW 9.2 mph 20.7 mph N/A   Mostly Cloudy
8:52 AM 64.9 °F 55.9 °F 73% 29.82 in 10.0 mi West 9.2 mph - N/A   Mostly Cloudy
9:11 AM 64.9 °F 55.9 °F 73% 29.82 in 10.0 mi WSW 8.1 mph - N/A   Scattered Clouds
9:52 AM 68.0 °F 57.0 °F 68% 29.81 in 10.0 mi Variable 6.9 mph - N/A   Partly Cloudy
10:52 AM 70.0 °F 55.9 °F 61% 29.81 in 10.0 mi SW 9.2 mph - N/A   Scattered Clouds
11:52 AM 73.0 °F 53.1 °F 49% 29.79 in 10.0 mi SW 12.7 mph 23.0 mph N/A   Partly Cloudy
12:52 PM 71.1 °F 55.0 °F 57% 29.79 in 10.0 mi SW 8.1 mph 18.4 mph N/A   Mostly Cloudy
1:52 PM 72.0 °F 53.1 °F 51% 29.78 in 10.0 mi Variable 6.9 mph - N/A   Mostly Cloudy
2:52 PM 72.0 °F 53.1 °F 51% 29.79 in 10.0 mi SW 10.4 mph 17.3 mph N/A   Overcast
3:52 PM 73.0 °F 51.1 °F 46% 29.79 in 10.0 mi West 12.7 mph 20.7 mph N/A   Overcast
4:52 PM 72.0 °F 50.0 °F 46% 29.81 in 10.0 mi West 12.7 mph - N/A   Mostly Cloudy
5:52 PM 72.0 °F 50.0 °F 46% 29.83 in 10.0 mi West 16.1 mph 25.3 mph N/A   Mostly Cloudy
6:52 PM 70.0 °F 48.0 °F 46% 29.87 in 10.0 mi West 11.5 mph 18.4 mph N/A   Overcast
7:52 PM 66.9 °F 45.0 °F 45% 29.90 in 10.0 mi West 10.4 mph 20.7 mph N/A   Clear
8:52 PM 64.9 °F 46.0 °F 50% 29.93 in 10.0 mi West 8.1 mph - N/A   Clear
9:52 PM 64.0 °F 45.0 °F 50% 29.95 in 10.0 mi West 6.9 mph - N/A   Clear